EN

Hourly Weather Carlsbad

Today, 16 April, Friday

Time Temperature Precipitation Wind Pressure Humidity
00:00 +15°C° 0 mm 4 mps 674 mmHg 58%
01:00 +17°C° 0 mm 4 mps 674 mmHg 43%
02:00 +17°C° 0 mm 4 mps 674 mmHg 27%
03:00 +15°C° 0 mm 4 mps 674 mmHg 25%
04:00 +14°C° 0 mm 4 mps 674 mmHg 23%
05:00 +14°C° 0 mm 4 mps 674 mmHg 21%
06:00 +15°C° 0 mm 5 mps 675 mmHg 18%
07:00 +16°C° 0 mm 5 mps 676 mmHg 15%
08:00 +19°C° 0 mm 6 mps 677 mmHg 11%
09:00 +20°C° 0 mm 5 mps 677 mmHg 10%
10:00 +21°C° 0 mm 5 mps 677 mmHg 9%
11:00 +23°C° 0 mm 4 mps 677 mmHg 8%
12:00 +24°C° 0 mm 3 mps 677 mmHg 8%
13:00 +25°C° 0 mm 3 mps 676 mmHg 8%
14:00 +25°C° 0 mm 2 mps 676 mmHg 8%
15:00 +25°C° 0 mm 4 mps 676 mmHg 9%
16:00 +24°C° 0 mm 6 mps 676 mmHg 10%
17:00 +23°C° 0 mm 7 mps 676 mmHg 12%
18:00 +22°C° 0 mm 6 mps 676 mmHg 13%
19:00 +21°C° 0 mm 6 mps 676 mmHg 15%
20:00 +20°C° 0 mm 5 mps 677 mmHg 16%
21:00 +16°C° 0 mm 6 mps 678 mmHg 24%
22:00 +14°C° 0 mm 7 mps 678 mmHg 32%
23:00 +11°C° 0 mm 8 mps 679 mmHg 40%

Tomorrow, 17 April, Saturday

Time Temperature Precipitation Wind Pressure Humidity
00:00 +10°C° 0 mm 7 mps 680 mmHg 43%
01:00 +8°C° 0 mm 6 mps 680 mmHg 46%
02:00 +7°C° 0 mm 5 mps 681 mmHg 49%
03:00 +7°C° 0 mm 4 mps 681 mmHg 50%
04:00 +7°C° 0 mm 4 mps 681 mmHg 51%
05:00 +6°C° 0 mm 4 mps 681 mmHg 53%
06:00 +6°C° 0.1 mm 4 mps 682 mmHg 53%
07:00 +6°C° 0.1 mm 4 mps 682 mmHg 54%
08:00 +8°C° 0.1 mm 3 mps 683 mmHg 55%
09:00 +9°C° 0 mm 3 mps 682 mmHg 50%
10:00 +10°C° 0 mm 3 mps 682 mmHg 44%
11:00 +12°C° 0 mm 3 mps 682 mmHg 39%
12:00 +14°C° 0 mm 2 mps 681 mmHg 36%
13:00 +15°C° 0 mm 2 mps 681 mmHg 33%
14:00 +16°C° 0 mm 2 mps 680 mmHg 30%
15:00 +17°C° 0 mm 2 mps 680 mmHg 30%
16:00 +17°C° 0 mm 3 mps 680 mmHg 29%
17:00 +18°C° 0 mm 3 mps 679 mmHg 28%
18:00 +15°C° 0 mm 4 mps 680 mmHg 32%
19:00 +14°C° 0 mm 5 mps 680 mmHg 35%
20:00 +13°C° 0 mm 5 mps 681 mmHg 38%
21:00 +12°C° 0 mm 5 mps 681 mmHg 42%
22:00 +10°C° 0 mm 5 mps 681 mmHg 46%
23:00 +10°C° 0 mm 4 mps 681 mmHg 50%

Day after tomorrow, 18 April, Sunday

Time Temperature Precipitation Wind Pressure Humidity
00:00 +8°C° 0 mm 4 mps 682 mmHg 51%
01:00 +9°C° 0 mm 3 mps 682 mmHg 52%
02:00 +9°C° 0 mm 3 mps 682 mmHg 54%
03:00 +9°C° 0 mm 3 mps 682 mmHg 54%
04:00 +9°C° 0 mm 3 mps 682 mmHg 55%
05:00 +7°C° 0 mm 4 mps 683 mmHg 55%
06:00 +8°C° 0.2 mm 4 mps 683 mmHg 55%
07:00 +8°C° 0.2 mm 4 mps 683 mmHg 55%
08:00 +8°C° 0.2 mm 4 mps 684 mmHg 55%
09:00 +11°C° 0 mm 4 mps 683 mmHg 50%
10:00 +12°C° 0 mm 4 mps 683 mmHg 45%
11:00 +13°C° 0 mm 3 mps 683 mmHg 40%
12:00 +13°C° 0.3 mm 3 mps 682 mmHg 43%
13:00 +13°C° 0.3 mm 3 mps 682 mmHg 46%
14:00 +13°C° 0.3 mm 3 mps 681 mmHg 49%
15:00 +14°C° 0 mm 4 mps 681 mmHg 46%
16:00 +14°C° 0 mm 4 mps 681 mmHg 43%
17:00 +15°C° 0 mm 4 mps 680 mmHg 40%
18:00 +14°C° 0 mm 4 mps 681 mmHg 44%
19:00 +12°C° 0 mm 3 mps 681 mmHg 47%
20:00 +11°C° 0 mm 3 mps 681 mmHg 51%
21:00 +12°C° 0 mm 2 mps 681 mmHg 52%
22:00 +12°C° 0 mm 2 mps 680 mmHg 54%
23:00 +10°C° 0 mm 2 mps 680 mmHg 56%

19 April, Monday

Time Temperature Precipitation Wind Pressure Humidity
00:00 +11°C° 0 mm 1 mps 680 mmHg 58%
01:00 +11°C° 0 mm 1 mps 680 mmHg 59%
02:00 +10°C° 0 mm 1 mps 680 mmHg 61%
03:00 +10°C° 0 mm 1 mps 679 mmHg 62%
04:00 +10°C° 0 mm 1 mps 679 mmHg 64%
05:00 +10°C° 0 mm 1 mps 679 mmHg 65%
06:00 +11°C° 0 mm 1 mps 679 mmHg 59%
07:00 +12°C° 0 mm 2 mps 680 mmHg 54%
08:00 +12°C° 0 mm 3 mps 680 mmHg 49%
09:00 +13°C° 0 mm 3 mps 680 mmHg 44%
10:00 +16°C° 0 mm 3 mps 679 mmHg 39%
11:00 +17°C° 0 mm 3 mps 679 mmHg 35%
12:00 +19°C° 0 mm 3 mps 678 mmHg 33%
13:00 +20°C° 0 mm 3 mps 678 mmHg 30%
14:00 +21°C° 0 mm 3 mps 677 mmHg 28%
15:00 +21°C° 0.1 mm 3 mps 677 mmHg 30%
16:00 +21°C° 0.1 mm 3 mps 677 mmHg 32%
17:00 +20°C° 0.1 mm 3 mps 676 mmHg 34%
18:00 +19°C° 0 mm 3 mps 676 mmHg 36%
19:00 +18°C° 0 mm 3 mps 676 mmHg 37%
20:00 +17°C° 0 mm 3 mps 677 mmHg 38%
21:00 +17°C° 0 mm 4 mps 677 mmHg 41%
22:00 +15°C° 0 mm 4 mps 677 mmHg 44%
23:00 +14°C° 0 mm 5 mps 677 mmHg 47%

20 April, Tuesday

Time Temperature Precipitation Wind Pressure Humidity
00:00 +11°C° 0 mm 7 mps 677 mmHg 53%
01:00 +10°C° 0 mm 8 mps 677 mmHg 59%
02:00 +8°C° 0 mm 10 mps 678 mmHg 65%
03:00 +6°C° 0 mm 9 mps 679 mmHg 67%
04:00 +5°C° 0 mm 9 mps 680 mmHg 68%
05:00 +4°C° 0 mm 8 mps 682 mmHg 70%
06:00 +5°C° 0 mm 7 mps 682 mmHg 66%
07:00 +5°C° 0 mm 6 mps 683 mmHg 62%
08:00 +7°C° 0 mm 5 mps 684 mmHg 58%
09:00 +8°C° 0 mm 4 mps 684 mmHg 53%
10:00 +10°C° 0 mm 4 mps 684 mmHg 49%
11:00 +12°C° 0 mm 3 mps 684 mmHg 44%
12:00 +14°C° 0 mm 2 mps 683 mmHg 41%
13:00 +16°C° 0 mm 2 mps 682 mmHg 37%
14:00 +17°C° 0 mm 2 mps 682 mmHg 33%
15:00 +18°C° 0 mm 3 mps 682 mmHg 32%
16:00 +18°C° 0 mm 4 mps 681 mmHg 31%
17:00 +19°C° 0 mm 5 mps 681 mmHg 30%
18:00 +16°C° 0 mm 6 mps 681 mmHg 34%
19:00 +15°C° 0 mm 7 mps 681 mmHg 38%
20:00 +12°C° 0 mm 7 mps 681 mmHg 43%
21:00 +11°C° 0 mm 7 mps 681 mmHg 46%
22:00 +11°C° 0 mm 7 mps 681 mmHg 50%
23:00 +10°C° 0 mm 6 mps 681 mmHg 53%

21 April, Wednesday

Time Temperature Precipitation Wind Pressure Humidity
00:00 +9°C° 0 mm 6 mps 681 mmHg 56%
01:00 +9°C° 0 mm 6 mps 680 mmHg 60%
02:00 +8°C° 0 mm 5 mps 680 mmHg 63%
03:00 +7°C° 0 mm 5 mps 680 mmHg 65%
04:00 +7°C° 0 mm 5 mps 680 mmHg 68%
05:00 +7°C° 0 mm 5 mps 680 mmHg 71%
06:00 +8°C° 0 mm 5 mps 680 mmHg 66%
07:00 +10°C° 0 mm 6 mps 681 mmHg 62%
08:00 +11°C° 0 mm 6 mps 681 mmHg 58%
09:00 +15°C° 0 mm 6 mps 681 mmHg 50%
10:00 +19°C° 0 mm 6 mps 681 mmHg 42%
11:00 +22°C° 0 mm 6 mps 681 mmHg 34%
12:00 +23°C° 0 mm 6 mps 680 mmHg 30%
13:00 +26°C° 0 mm 7 mps 679 mmHg 27%
14:00 +28°C° 0 mm 7 mps 679 mmHg 23%
15:00 +28°C° 0 mm 8 mps 678 mmHg 23%
16:00 +28°C° 0 mm 9 mps 677 mmHg 23%
17:00 +28°C° 0 mm 10 mps 677 mmHg 24%
18:00 +24°C° 0.1 mm 10 mps 677 mmHg 35%
19:00 +21°C° 0.1 mm 10 mps 677 mmHg 46%
20:00 +17°C° 0.1 mm 10 mps 677 mmHg 58%
21:00 +16°C° 0 mm 10 mps 677 mmHg 64%
22:00 +15°C° 0 mm 9 mps 677 mmHg 70%
23:00 +13°C° 0 mm 9 mps 677 mmHg 76%
Show more

We Need Your Consent

Meteoprog and our Service Providers may store and access personal data such as cookies, device identifiers or other similar technologies on your device and process such data to personalise content and ads, as well as provide social media features and to analyse the traffic.

  • Store and/or access information on your device

    Cookies, device identifiers or other information can be stored or accessed on your device for the purposes indicated above.

  • Personalised ads and content, ad and content measurement, audience insights, and products development

    Ads and content can be personalised based on a profile. More data can be added to better personalise ads and content. Ad and content performance can be measured. Insights about the audience who saw the ads and content can be derived. Such data can be used to develop or improve user’s experience, systems and software.

By clicking ‘I Agree’ you will allow the use of indicated cookies, device identifiers, web beacons or other similar technologies. Your settings can be changed in the browser on your device.

For certain purposes, legitimate interests may be relied on, rather than consent. You can read more about this in our Privacy and Cookie Policy.